Content
SEND FEEDBACK

Daily
Averages
Monthly
Summary
India

JAIPUR, INDIA


Home > Asia > India
Elevation: 1279 feet     Latitude: 26 49N     Longitude: 075 48E

WEATHER
 
SELECT A DAY
Number of Records: 97,644;   Date Range: 10/1/99 - 7/20/14
 
SHARE

PRINT THIS DATA

[ ← Previous Day ]
WEATHER ALMANAC - APRIL 17, 2013
[ Next Day → ]
[ °C ]   °F
Weather ElementAverageHighLow
Temperature90.6 °F99 °F (2:30 pm)75.2 °F (6:00 am)
Dewpoint35.4 °F47 °F (2:30 am)15.8 °F (6:30 pm)
Humidity14.6 %31 % (6:00 am)5 % (2:30 pm)
Barometer29.64 in29.74 in (10:00 am)29.55 in (2:30 am)
Wind Speed4.7 mph10.4 mph (2:00 am)
Weather ElementAverage
Visibility2.6 mi
Wind DirectionENE (79.7 °)

Weather ElementTotal
Precipitation---
Cooling Degree Days22.1 (Base 65)
Growing Degree Days37.1 (Base 50)
Averaged from 33 records on April 17, 2013
WEATHER CONDITIONS BREAKOUT
WIND DIRECTION BREAKOUT
WEATHER BY HOUR - APRIL 17, 2013
[ °C ]   °F
Local TimeTemperatureDewpointHumidityBarometerVisibilityWind DirectionWind SpeedGust SpeedPrecipitationEventsConditions
1:00 AM87.8 °F39.2 °F18 %29.65 in2.2 miVariable8.1 mphHaze
2:00 AM86.0 °F39.2 °F19 %29.62 in2.2 miVariable10.4 mphHaze
2:30 AM86.0 °F47.0 °F16 %29.55 in1.0 mi°5.8 mphHaze
3:00 AM84.2 °F39.2 °F20 %29.65 in2.2 miNE (50°)8.1 mphHaze
4:00 AM80.6 °F41.0 °F24 %29.65 in2.2 miSW (220°)6.9 mphHaze
5:00 AM77.0 °F41.0 °F28 %29.65 in2.2 miCalmHaze
6:00 AM75.2 °F42.8 °F31 %29.65 in2.2 miVariable1.2 mphHaze
8:00 AM82.4 °F44.6 °F26 %29.68 in2.5 miVariable2.3 mphHaze
8:30 AM84.0 °F46.0 °F17 %29.62 in2.0 miSouth (180°)3.5 mphHaze
9:00 AM86.0 °F42.8 °F22 %29.68 in2.5 miSW (230°)6.9 mphHaze
10:00 AM87.8 °F41.0 °F19 %29.74 in2.5 miWSW (240°)6.9 mphHaze
11:00 AM91.4 °F41.0 °F17 %29.71 in2.5 miVariable5.8 mphHaze
11:30 AM93.0 °F45.0 °F11 %29.62 in2.0 miWest (270°)4.6 mphHaze
12:00 PM93.2 °F37.4 °F14 %29.71 in3.1 miVariable8.1 mphHaze
1:00 PM95.0 °F35.6 °F12 %29.68 in3.1 miVariable6.9 mphHaze
1:30 PM96.8 °F35.6 °F12 %29.68 in3.1 miVariable5.8 mphHaze
2:00 PM98.6 °F33.8 °F10 %29.65 in3.1 miVariable4.6 mphHaze
2:30 PM99.0 °F33.0 °F5 %29.55 in2.0 miEast (90°)2.3 mphHaze
2:30 PM98.6 °F32.0 °F10 %29.65 in3.1 miVariable4.6 mphHaze
3:00 PM98.6 °F32.0 °F10 %29.62 in3.1 miVariable4.6 mphHaze
3:30 PM98.6 °F32.0 °F10 %29.62 in3.1 miVariable8.1 mphHaze
4:00 PM98.6 °F32.0 °F10 %29.62 in3.1 miVariable4.6 mphHaze
4:30 PM98.6 °F33.8 °F10 %29.59 in3.1 miVariable4.6 mphHaze
5:00 PM98.6 °F26.6 °F8 %29.59 in3.1 miWest (280°)8.1 mphHaze
5:30 PM96.8 °F23.0 °F7 %29.62 in3.1 miNW (320°)5.8 mphHaze
6:00 PM96.8 °F21.2 °F7 %29.62 in3.1 miWNW (300°)8.1 mphHaze
6:30 PM95.0 °F15.8 °F6 %29.62 in2.5 miWNW (290°)8.1 mphHaze
7:00 PM93.2 °F21.2 °F7 %29.62 in2.5 miCalmHaze
8:00 PM91.4 °F26.6 °F10 %29.65 in2.5 miCalmHaze
8:30 PM90.0 °F35.0 °F7 %29.56 in2.0 miCalmHaze
9:00 PM87.8 °F33.8 °F15 %29.65 in2.5 miCalmHaze
10:00 PM82.4 °F37.4 °F20 %29.68 in2.5 miCalmHaze
11:00 PM80.6 °F39.2 °F23 %29.68 in2.5 miCalmHaze
Hourly data recorded from VIJP, located miles away from Jaipur, India







STORIES FROM OUR PARTNERS